Regional Weather Roundup
Issued by NWS Sioux Falls, SD

Home | Current Version | Previous Version | Graphics & Text | Print | Product List | Glossary Off
Versions: 1 2 3 4 5 6 7 8 9 10 11 12 13 14 15 16 17 18 19 20 21 22 23 24 25 26 27 28 29 30 31 32 33 34 35 36 37 38 39 40 41 42 43 44 45 46 47 48 49 50

000
ASUS43 KFSD 290110
RWRFSD

WEATHER ROUNDUP FOR SE SOUTH DAKOTA/SW MINNESOTA/NW IOWA
NATIONAL WEATHER SERVICE SIOUX FALLS SD
800 PM CDT SAT MAR 28 2015

NOTE: "FAIR" INDICATES FEW OR NO CLOUDS BELOW 12,000 FEET WITH NO
SIGNIFICANT WEATHER AND OR OBSTRUCTIONS TO VISIBILITY.


SDZ038>040-050-052>070-290200-
SOUTHEAST SOUTH DAKOTA

CITY           SKY/WX    TMP DP  RH WIND       PRES   REMARKS
CHAMBERLAIN    CLEAR     56  33  41 SE20G26   29.67F
HURON          CLEAR     52  32  46 S22G29    29.74F
MADISON        FAIR      46  28  49 S18G25    29.85F
MITCHELL       CLEAR     52  33  48 S22       29.79F
SIOUX FALLS    CLEAR     49  27  42 S18G25    29.88F
WINNER         FAIR      66  33  29 S22G33    29.64F
YANKTON        CLEAR     50  30  46 SE14G22   29.89F
$$

MNZ071-072-080-081-089-090-097-098-290200-
SOUTHWEST MINNESOTA

CITY           SKY/WX    TMP DP  RH WIND       PRES   REMARKS
FAIRMONT       CLEAR     39  21  48 S14       30.01S
JACKSON        CLEAR     43  27  52 S15G22    29.98F
LUVERNE        CLEAR     45  28  53 S13       29.92F
MARSHALL       CLEAR     46  27  46 S18       29.90F
MONTEVIDEO     PTCLDY    45  30  57 S12G21    29.89F
PIPESTONE      CLEAR     45  27  49 S16G22    29.88F
REDWOOD FALLS  CLEAR     43  29  57 S16       29.94F
TRACY          CLEAR     46  29  52 S12G20    29.91F
WINDOM         CLEAR     45  27  49 S14G20    29.96F
WORTHINGTON    CLEAR     45  25  45 S16       29.95F
$$

IAZ001>003-012>014-020>022-031-032-NEZ013-014-SDZ071-290200-
NORTHWEST IOWA

CITY           SKY/WX    TMP DP  RH WIND       PRES   REMARKS
CHEROKEE       CLEAR     44  29  55 S12       29.99F
DENISON        CLEAR     46  27  46 S13       30.01S
ESTHERVILLE    CLEAR     41  25  53 S15       30.00F
LE MARS        CLEAR     48  28  46 S13       29.96F
ORANGE CITY    CLEAR     46  27  46 S12       29.95F
SHELDON        CLEAR     45  28  53 S15       29.94F
SIOUX CITY     CLEAR     50  29  44 S12G22    29.97F
SPENCER        CLEAR     43  29  57 S15       29.98F
STORM LAKE     CLEAR     41  28  60 S14       30.01F
$$

ABBREVIATIONS USED IN REMARKS
   TC - TEMPERATURE IN CELSIUS
  WCI - WIND CHILL INDEX
   HX - HEAT INDEX
  VSB - VISIBILITY




USA.gov is the U.S. government's official web portal to all federal, state and local government web resources and services.